Time,TemperatureF,DewpointF,PressureIn,WindDirection,WindDirectionDegrees,WindSpeedMPH,WindSpeedGustMPH,Humidity,HourlyPrecipIn,Conditions,Clouds,dailyrainin,SolarRadiationWatts/m^2,SoftwareType,DateUTC
2013-07-28 00:02:00,56.6,48.0,29.91,SW,235,8.1,8.1,73,0.00,OVC,,0.00,0.0,WeatherDisplay:10.37,2013-07-28 05:02:00,
2013-07-28 00:07:00,56.4,48.2,29.91,SW,235,6.0,6.0,74,0.00,OVC,,0.00,0.0,WeatherDisplay:10.37,2013-07-28 05:07:00,
2013-07-28 00:12:00,56.2,48.0,29.91,SW,234,5.0,5.0,74,0.00,OVC,,0.00,0.0,WeatherDisplay:10.37,2013-07-28 05:12:00,
2013-07-28 00:17:00,56.2,48.0,29.91,SW,224,6.9,6.9,74,0.00,OVC,,0.00,0.0,WeatherDisplay:10.37,2013-07-28 05:17:00,
2013-07-28 00:22:00,56.3,48.1,29.91,SW,229,5.8,5.8,74,0.00,OVC,,0.00,0.0,WeatherDisplay:10.37,2013-07-28 05:22:00,
2013-07-28 00:27:00,56.2,48.4,29.91,SW,218,6.0,6.0,75,0.00,OVC,,0.00,0.0,WeatherDisplay:10.37,2013-07-28 05:27:00,
2013-07-28 00:32:00,56.1,48.3,29.91,SW,228,5.8,5.8,75,0.00,BKN,,0.00,0.0,WeatherDisplay:10.37,2013-07-28 05:32:00,
2013-07-28 00:37:00,56.3,48.1,29.91,SSW,199,10.4,10.4,74,0.00,BKN,,0.00,0.0,WeatherDisplay:10.37,2013-07-28 05:37:00,
2013-07-28 00:42:00,56.3,47.8,29.91,WSW,252,9.2,9.2,73,0.00,BKN,,0.00,0.0,WeatherDisplay:10.37,2013-07-28 05:42:00,
2013-07-28 00:47:00,56.5,47.6,29.91,WSW,238,8.1,8.1,72,0.00,OVC,,0.00,0.0,WeatherDisplay:10.37,2013-07-28 05:47:00,
2013-07-28 00:52:00,56.6,47.7,29.91,WSW,258,10.4,10.4,72,0.00,OVC,,0.00,0.0,WeatherDisplay:10.37,2013-07-28 05:52:00,
2013-07-28 00:57:00,56.6,47.7,29.91,West,277,10.4,10.4,72,0.00,OVC,,0.00,0.0,WeatherDisplay:10.37,2013-07-28 05:57:00,
2013-07-28 01:02:00,56.5,47.6,29.91,WSW,251,10.4,10.4,72,0.00,OVC,,0.00,0.0,WeatherDisplay:10.37,2013-07-28 06:02:00,
2013-07-28 01:07:00,56.3,47.8,29.91,WNW,300,6.9,6.9,73,0.00,OVC,,0.00,0.0,WeatherDisplay:10.37,2013-07-28 06:07:00,
2013-07-28 01:12:00,56.0,47.8,29.91,WSW,250,8.1,8.1,74,0.00,OVC,,0.00,0.0,WeatherDisplay:10.37,2013-07-28 06:12:00,
2013-07-28 01:17:00,55.7,47.9,29.91,WSW,243,8.0,8.0,75,0.00,BKN,,0.00,0.0,WeatherDisplay:10.37,2013-07-28 06:17:00,
2013-07-28 01:22:00,55.5,47.7,29.91,WNW,282,6.9,6.9,75,0.00,BKN,,0.00,0.0,WeatherDisplay:10.37,2013-07-28 06:22:00,
2013-07-28 01:27:00,55.3,47.9,29.91,WSW,254,6.9,6.9,76,0.00,BKN,,0.00,0.0,WeatherDisplay:10.37,2013-07-28 06:27:00,
2013-07-28 01:32:00,55.1,48.0,29.91,WSW,240,10.4,10.4,77,0.00,SCT,,0.00,0.0,WeatherDisplay:10.37,2013-07-28 06:32:00,
2013-07-28 01:37:00,55.0,47.9,29.91,WSW,246,5.0,5.0,77,0.00,SCT,,0.00,0.0,WeatherDisplay:10.37,2013-07-28 06:37:00,
2013-07-28 01:43:00,54.8,48.1,29.91,West,276,8.1,8.1,78,0.00,SCT,,0.00,0.0,WeatherDisplay:10.37,2013-07-28 06:43:00,
2013-07-28 01:48:00,54.7,48.0,29.91,West,263,8.1,8.1,78,0.00,CLR,,0.00,0.0,WeatherDisplay:10.37,2013-07-28 06:48:00,
2013-07-28 01:53:00,54.5,48.1,29.91,WSW,256,6.9,6.9,79,0.00,CLR,,0.00,0.0,WeatherDisplay:10.37,2013-07-28 06:53:00,
2013-07-28 01:58:00,54.3,47.9,29.91,West,277,6.9,6.9,79,0.00,CLR,,0.00,0.0,WeatherDisplay:10.37,2013-07-28 06:58:00,
2013-07-28 02:03:00,54.2,48.2,29.91,West,263,8.1,8.1,80,0.00,CLR,,0.00,0.0,WeatherDisplay:10.37,2013-07-28 07:03:00,
2013-07-28 02:08:00,54.1,48.1,29.91,West,264,9.2,9.2,80,0.00,CLR,,0.00,0.0,WeatherDisplay:10.37,2013-07-28 07:08:00,
2013-07-28 02:13:00,54.0,48.0,29.91,West,272,7.0,7.0,80,0.00,CLR,,0.00,0.0,WeatherDisplay:10.37,2013-07-28 07:13:00,
2013-07-28 02:18:00,53.8,47.8,29.91,WSW,257,5.8,5.8,80,0.00,CLR,,0.00,0.0,WeatherDisplay:10.37,2013-07-28 07:18:00,
2013-07-28 02:23:00,53.7,48.0,29.90,WSW,251,8.1,8.1,81,0.00,CLR,,0.00,0.0,WeatherDisplay:10.37,2013-07-28 07:23:00,
2013-07-28 02:28:00,53.5,47.8,29.90,West,267,4.6,4.6,81,0.00,CLR,,0.00,0.0,WeatherDisplay:10.37,2013-07-28 07:28:00,
2013-07-28 02:33:00,53.3,47.6,29.90,West,259,6.0,6.0,81,0.00,CLR,,0.00,0.0,WeatherDisplay:10.37,2013-07-28 07:33:00,
2013-07-28 02:38:00,53.2,47.5,29.90,West,267,5.8,5.8,81,0.00,CLR,,0.00,0.0,WeatherDisplay:10.37,2013-07-28 07:38:00,
2013-07-28 02:43:00,53.0,47.7,29.90,West,265,4.6,4.6,82,0.00,CLR,,0.00,0.0,WeatherDisplay:10.37,2013-07-28 07:43:00,
2013-07-28 02:48:00,52.9,47.6,29.90,WSW,250,3.5,3.5,82,0.00,CLR,,0.00,0.0,WeatherDisplay:10.37,2013-07-28 07:48:00,
2013-07-28 02:53:00,52.7,47.4,29.90,West,263,3.5,3.5,82,0.00,CLR,,0.00,0.0,WeatherDisplay:10.37,2013-07-28 07:53:00,
2013-07-28 02:58:00,52.6,47.6,29.90,SW,235,4.6,4.6,83,0.00,CLR,,0.00,0.0,WeatherDisplay:10.37,2013-07-28 07:58:00,
2013-07-28 03:03:00,52.4,47.4,29.90,WSW,248,5.8,5.8,83,0.00,CLR,,0.00,0.0,WeatherDisplay:10.37,2013-07-28 08:03:00,
2013-07-28 03:08:00,52.3,47.3,29.90,WSW,250,5.8,5.8,83,0.00,CLR,,0.00,0.0,WeatherDisplay:10.37,2013-07-28 08:08:00,
2013-07-28 03:13:00,52.3,47.3,29.90,West,260,2.3,2.3,83,0.00,CLR,,0.00,0.0,WeatherDisplay:10.37,2013-07-28 08:13:00,
2013-07-28 03:18:00,52.2,47.5,29.90,WSW,241,5.8,5.8,84,0.00,CLR,,0.00,0.0,WeatherDisplay:10.37,2013-07-28 08:18:00,
2013-07-28 03:23:00,52.3,47.6,29.90,West,261,4.6,4.6,84,0.00,CLR,,0.00,0.0,WeatherDisplay:10.37,2013-07-28 08:23:00,
2013-07-28 03:28:00,52.3,47.3,29.90,West,266,4.6,4.6,83,0.00,CLR,,0.00,0.0,WeatherDisplay:10.37,2013-07-28 08:28:00,
2013-07-28 03:33:00,52.3,47.3,29.90,WSW,239,5.0,5.0,83,0.00,CLR,,0.00,0.0,WeatherDisplay:10.37,2013-07-28 08:33:00,
2013-07-28 03:38:00,52.2,47.5,29.89,SW,236,4.6,4.6,84,0.00,CLR,,0.00,0.0,WeatherDisplay:10.37,2013-07-28 08:38:00,
2013-07-28 03:43:00,52.1,47.4,29.89,WSW,246,4.6,4.6,84,0.00,CLR,,0.00,0.0,WeatherDisplay:10.37,2013-07-28 08:43:00,
2013-07-28 03:48:00,52.1,47.7,29.89,WSW,256,4.6,4.6,85,0.00,CLR,,0.00,0.0,WeatherDisplay:10.37,2013-07-28 08:48:00,
2013-07-28 03:53:00,51.9,47.2,29.90,WSW,246,4.0,4.0,84,0.00,CLR,,0.00,0.0,WeatherDisplay:10.37,2013-07-28 08:53:00,
2013-07-28 03:58:00,51.7,47.3,29.90,WSW,242,5.8,5.8,85,0.00,CLR,,0.00,0.0,WeatherDisplay:10.37,2013-07-28 08:58:00,
2013-07-28 04:03:00,51.5,47.1,29.90,SSW,201,4.6,4.6,85,0.00,SCT,,0.00,0.0,WeatherDisplay:10.37,2013-07-28 09:03:00,
2013-07-28 04:08:00,51.3,46.9,29.90,SW,225,6.9,6.9,85,0.00,SCT,,0.00,0.0,WeatherDisplay:10.37,2013-07-28 09:08:00,
2013-07-28 04:13:00,51.0,47.3,29.90,SW,229,6.9,6.9,87,0.00,SCT,,0.00,0.0,WeatherDisplay:10.37,2013-07-28 09:13:00,
2013-07-28 04:18:00,50.8,47.1,29.91,SW,225,6.0,6.0,87,0.00,SCT,,0.00,0.0,WeatherDisplay:10.37,2013-07-28 09:18:00,
2013-07-28 04:23:00,50.9,47.5,29.91,SW,231,6.9,6.9,88,0.00,SCT,,0.00,0.0,WeatherDisplay:10.37,2013-07-28 09:23:00,
2013-07-28 04:28:00,50.9,47.5,29.91,SW,232,6.9,6.9,88,0.00,SCT,,0.00,0.0,WeatherDisplay:10.37,2013-07-28 09:28:00,
2013-07-28 04:33:00,51.0,47.6,29.91,WSW,242,6.9,6.9,88,0.00,SCT,,0.00,0.0,WeatherDisplay:10.37,2013-07-28 09:33:00,
2013-07-28 04:38:00,51.1,47.7,29.91,SW,227,7.0,7.0,88,0.00,SCT,,0.00,0.0,WeatherDisplay:10.37,2013-07-28 09:38:00,
2013-07-28 04:43:00,51.2,47.8,29.91,SW,232,6.9,6.9,88,0.00,SCT,,0.00,0.0,WeatherDisplay:10.37,2013-07-28 09:43:00,
2013-07-28 04:48:00,51.2,47.8,29.91,WSW,238,6.9,6.9,88,0.00,BKN,,0.00,0.0,WeatherDisplay:10.37,2013-07-28 09:48:00,
2013-07-28 04:53:00,51.3,47.9,29.91,SW,230,5.8,5.8,88,0.00,BKN,,0.00,0.0,WeatherDisplay:10.37,2013-07-28 09:53:00,
2013-07-28 04:58:00,51.4,48.0,29.91,WSW,240,8.1,8.1,88,0.00,BKN,,0.00,0.0,WeatherDisplay:10.37,2013-07-28 09:58:00,
2013-07-28 05:03:00,51.6,48.2,29.91,WSW,237,5.8,5.8,88,0.00,BKN,,0.00,0.0,WeatherDisplay:10.37,2013-07-28 10:03:00,
2013-07-28 05:08:00,51.8,48.1,29.91,WSW,238,9.2,9.2,87,0.00,BKN,,0.00,0.0,WeatherDisplay:10.37,2013-07-28 10:08:00,
2013-07-28 05:13:00,51.9,48.2,29.91,SW,235,4.6,4.6,87,0.00,BKN,,0.00,0.0,WeatherDisplay:10.37,2013-07-28 10:13:00,
2013-07-28 05:18:00,52.1,48.0,29.91,WSW,238,3.5,3.7,86,0.00,OVC,,0.00,0.0,WeatherDisplay:10.37,2013-07-28 10:18:00,
2013-07-28 05:23:00,52.3,48.2,29.91,SW,229,4.6,4.6,86,0.00,OVC,,0.00,0.0,WeatherDisplay:10.37,2013-07-28 10:23:00,
2013-07-28 05:28:00,52.4,48.3,29.91,WSW,252,6.9,6.9,86,0.00,OVC,,0.00,0.0,WeatherDisplay:10.37,2013-07-28 10:28:00,
2013-07-28 05:33:00,52.5,48.1,29.91,WSW,238,6.9,6.9,85,0.00,OVC,,0.00,0.0,WeatherDisplay:10.37,2013-07-28 10:33:00,
2013-07-28 05:38:00,52.6,48.2,29.91,SW,233,3.5,3.5,85,0.00,OVC,,0.00,0.0,WeatherDisplay:10.37,2013-07-28 10:38:00,
2013-07-28 05:43:00,52.7,48.3,29.92,SW,233,4.6,4.6,85,0.00,OVC,,0.00,0.0,WeatherDisplay:10.37,2013-07-28 10:43:00,
2013-07-28 05:48:00,52.7,48.3,29.92,SW,236,4.6,4.6,85,0.00,OVC,,0.00,0.0,WeatherDisplay:10.37,2013-07-28 10:48:00,
2013-07-28 05:53:00,52.8,48.4,29.91,SW,236,4.6,4.6,85,0.00,OVC,,0.00,5.0,WeatherDisplay:10.37,2013-07-28 10:53:00,
2013-07-28 05:58:00,52.8,48.4,29.92,SW,226,6.9,6.9,85,0.00,OVC,,0.00,7.0,WeatherDisplay:10.37,2013-07-28 10:58:00,
2013-07-28 06:03:00,52.9,48.2,29.92,SW,233,4.6,4.6,84,0.00,OVC,,0.00,9.0,WeatherDisplay:10.37,2013-07-28 11:03:00,
2013-07-28 06:08:00,53.0,48.3,29.92,SW,234,3.5,3.5,84,0.00,OVC,,0.00,9.0,WeatherDisplay:10.37,2013-07-28 11:08:00,
2013-07-28 06:13:00,53.1,48.4,29.92,SW,215,3.5,3.5,84,0.00,OVC,,0.00,14.0,WeatherDisplay:10.37,2013-07-28 11:13:00,
2013-07-28 06:18:00,53.2,48.5,29.92,SSW,213,4.0,4.0,84,0.00,OVC,,0.00,19.0,WeatherDisplay:10.37,2013-07-28 11:18:00,
2013-07-28 06:23:00,53.3,48.3,29.92,SW,235,6.9,6.9,83,0.00,OVC,,0.00,23.0,WeatherDisplay:10.37,2013-07-28 11:23:00,
2013-07-28 06:28:00,53.5,48.5,29.92,SSW,213,5.8,5.8,83,0.00,OVC,,0.00,28.0,WeatherDisplay:10.37,2013-07-28 11:28:00,
2013-07-28 06:33:00,53.6,48.6,29.92,SW,227,5.8,5.8,83,0.00,OVC,,0.00,32.0,WeatherDisplay:10.37,2013-07-28 11:33:00,
2013-07-28 06:38:00,53.8,48.4,29.92,SW,236,3.5,3.5,82,0.00,OVC,,0.00,32.0,WeatherDisplay:10.37,2013-07-28 11:38:00,
2013-07-28 06:43:00,54.0,48.6,29.92,SSW,206,3.5,3.5,82,0.00,OVC,,0.00,44.0,WeatherDisplay:10.37,2013-07-28 11:43:00,
2013-07-28 06:48:00,54.1,48.7,29.92,SW,217,5.8,5.8,82,0.00,OVC,,0.00,58.0,WeatherDisplay:10.37,2013-07-28 11:48:00,
2013-07-28 06:53:00,54.2,48.8,29.92,WSW,239,4.0,4.0,82,0.00,OVC,,0.00,63.0,WeatherDisplay:10.37,2013-07-28 11:53:00,
2013-07-28 06:58:00,54.5,49.1,29.92,SSW,203,3.5,3.5,82,0.00,OVC,,0.00,74.0,WeatherDisplay:10.37,2013-07-28 11:58:00,
2013-07-28 07:03:00,54.7,49.0,29.92,South,178,3.5,3.5,81,0.00,-DZ,,0.00,65.0,WeatherDisplay:10.37,2013-07-28 12:03:00,
2013-07-28 07:08:00,54.9,48.8,29.92,SW,227,3.5,3.5,80,0.00,-DZ,,0.00,76.0,WeatherDisplay:10.37,2013-07-28 12:08:00,
2013-07-28 07:13:00,55.1,49.0,29.92,SW,227,3.5,3.5,80,0.00,-DZ,,0.00,79.0,WeatherDisplay:10.37,2013-07-28 12:13:00,
2013-07-28 07:18:00,55.3,49.2,29.92,SW,227,2.3,0.0,80,0.00,-DZ,,0.00,74.0,WeatherDisplay:10.37,2013-07-28 12:18:00,
2013-07-28 07:23:00,55.5,49.1,29.92,SW,230,3.5,3.5,79,0.00,-DZ,,0.00,51.0,WeatherDisplay:10.37,2013-07-28 12:23:00,
2013-07-28 07:29:00,55.6,49.2,29.93,West,269,3.0,3.0,79,0.00,-DZ,,0.00,44.0,WeatherDisplay:10.37,2013-07-28 12:29:00,
2013-07-28 07:34:00,55.8,49.4,29.93,WSW,248,3.5,3.5,79,0.00,OVC,,0.00,95.0,WeatherDisplay:10.37,2013-07-28 12:34:00,
2013-07-28 07:39:00,56.0,49.9,29.92,SW,222,4.0,4.0,80,0.00,OVC,,0.00,79.0,WeatherDisplay:10.37,2013-07-28 12:39:00,
2013-07-28 07:44:00,56.2,50.1,29.92,SW,233,3.5,3.5,80,0.00,OVC,,0.00,67.0,WeatherDisplay:10.37,2013-07-28 12:44:00,
2013-07-28 07:49:00,56.2,49.8,29.93,SW,214,6.9,6.9,79,0.00,-RA,,0.00,88.0,WeatherDisplay:10.37,2013-07-28 12:49:00,
2013-07-28 07:54:00,56.2,50.1,29.93,SW,235,8.1,8.1,80,0.00,-RA,,0.00,144.0,WeatherDisplay:10.37,2013-07-28 12:54:00,
2013-07-28 07:59:00,56.2,50.8,29.92,SW,230,4.0,4.0,82,0.00,-RA,,0.00,107.0,WeatherDisplay:10.37,2013-07-28 12:59:00,
2013-07-28 08:04:00,56.3,50.5,29.92,SW,236,8.1,8.1,81,0.00,-RA,,0.00,149.0,WeatherDisplay:10.37,2013-07-28 13:04:00,
2013-07-28 08:09:00,56.4,51.0,29.93,WSW,255,7.0,7.0,82,0.00,-RA,,0.00,158.0,WeatherDisplay:10.37,2013-07-28 13:09:00,
2013-07-28 08:14:00,56.5,50.4,29.93,WSW,257,8.1,8.1,80,0.00,-RA,,0.00,153.0,WeatherDisplay:10.37,2013-07-28 13:14:00,
2013-07-28 08:19:00,56.6,50.5,29.92,WSW,250,8.1,8.1,80,0.00,-RA,,0.00,188.0,WeatherDisplay:10.37,2013-07-28 13:19:00,
2013-07-28 08:24:00,56.8,50.7,29.92,WSW,256,4.6,4.6,80,0.00,-RA,,0.00,146.0,WeatherDisplay:10.37,2013-07-28 13:24:00,
2013-07-28 08:29:00,57.0,50.9,29.92,NW,324,6.0,6.0,80,0.00,-RA,,0.00,151.0,WeatherDisplay:10.37,2013-07-28 13:29:00,
2013-07-28 08:34:00,57.2,50.4,29.93,West,261,6.9,6.9,78,0.00,-RA,,0.00,167.0,WeatherDisplay:10.37,2013-07-28 13:34:00,
2013-07-28 08:39:00,57.4,50.6,29.93,West,278,11.5,11.5,78,0.00,-RA,,0.00,227.0,WeatherDisplay:10.37,2013-07-28 13:39:00,
2013-07-28 08:44:00,57.6,50.8,29.93,WSW,248,9.2,9.2,78,0.00,-RA,,0.00,297.0,WeatherDisplay:10.37,2013-07-28 13:44:00,
2013-07-28 08:49:00,57.9,50.7,29.93,West,275,5.8,5.8,77,0.00,OVC,,0.00,229.0,WeatherDisplay:10.37,2013-07-28 13:49:00,
2013-07-28 08:54:00,58.1,50.9,29.93,West,259,11.5,11.5,77,0.00,OVC,,0.00,281.0,WeatherDisplay:10.37,2013-07-28 13:54:00,
2013-07-28 08:59:00,58.4,51.6,29.93,NW,318,5.8,5.8,78,0.00,OVC,,0.00,260.0,WeatherDisplay:10.37,2013-07-28 13:59:00,
2013-07-28 09:04:00,58.9,52.1,29.93,WSW,250,11.5,11.5,78,0.00,OVC,,0.00,318.0,WeatherDisplay:10.37,2013-07-28 14:04:00,
2013-07-28 09:09:00,58.9,51.3,29.93,West,280,11.5,11.5,76,0.00,OVC,,0.00,271.0,WeatherDisplay:10.37,2013-07-28 14:09:00,
2013-07-28 09:14:00,59.0,51.1,29.93,SW,234,11.5,11.5,75,0.00,OVC,,0.00,313.0,WeatherDisplay:10.37,2013-07-28 14:14:00,
2013-07-28 09:19:00,59.1,51.2,29.92,West,269,10.4,10.4,75,0.00,OVC,,0.00,279.0,WeatherDisplay:10.37,2013-07-28 14:19:00,
2013-07-28 09:24:00,59.4,51.8,29.92,WSW,256,11.5,11.5,76,0.00,OVC,,0.00,589.0,WeatherDisplay:10.37,2013-07-28 14:24:00,
2013-07-28 09:29:00,60.2,51.9,29.92,NW,306,11.5,11.5,74,0.00,OVC,,0.00,589.0,WeatherDisplay:10.37,2013-07-28 14:29:00,
2013-07-28 09:34:00,60.8,52.5,29.92,NW,308,11.0,11.0,74,0.00,OVC,,0.00,355.0,WeatherDisplay:10.37,2013-07-28 14:34:00,
2013-07-28 09:39:00,61.2,52.1,29.92,WSW,244,8.1,8.1,72,0.00,OVC,,0.00,376.0,WeatherDisplay:10.37,2013-07-28 14:39:00,
2013-07-28 09:44:00,61.3,52.2,29.92,West,279,6.9,6.9,72,0.00,OVC,,0.00,359.0,WeatherDisplay:10.37,2013-07-28 14:44:00,
2013-07-28 09:49:00,62.0,52.5,29.92,SW,215,8.1,8.1,71,0.00,OVC,,0.00,408.0,WeatherDisplay:10.37,2013-07-28 14:49:00,
2013-07-28 09:54:00,62.3,52.8,29.92,NW,309,6.9,6.9,71,0.00,OVC,,0.00,728.0,WeatherDisplay:10.37,2013-07-28 14:54:00,
2013-07-28 09:59:00,62.4,52.5,29.92,West,273,11.5,11.5,70,0.00,OVC,,0.00,689.0,WeatherDisplay:10.37,2013-07-28 14:59:00,
2013-07-28 10:04:00,62.6,52.3,29.92,West,261,11.5,11.5,69,0.00,BKN,,0.00,705.0,WeatherDisplay:10.37,2013-07-28 15:04:00,
2013-07-28 10:09:00,62.7,52.8,29.92,SW,218,10.4,10.4,70,0.00,BKN,,0.00,795.0,WeatherDisplay:10.37,2013-07-28 15:09:00,
2013-07-28 10:14:00,63.3,53.3,29.92,West,271,6.9,6.9,70,0.00,BKN,,0.00,292.0,WeatherDisplay:10.37,2013-07-28 15:14:00,
2013-07-28 10:19:00,62.9,52.6,29.92,WSW,248,10.4,10.4,69,0.00,BKN,,0.00,269.0,WeatherDisplay:10.37,2013-07-28 15:19:00,
2013-07-28 10:24:00,63.1,53.5,29.92,NW,306,8.1,8.1,71,0.00,BKN,,0.00,969.0,WeatherDisplay:10.37,2013-07-28 15:24:00,
2013-07-28 10:29:00,63.3,52.6,29.92,West,263,11.5,11.5,68,0.00,BKN,,0.00,251.0,WeatherDisplay:10.37,2013-07-28 15:29:00,
2013-07-28 10:34:00,63.2,52.9,29.93,West,279,8.1,8.1,69,0.00,SCT,,0.00,255.0,WeatherDisplay:10.37,2013-07-28 15:34:00,
2013-07-28 10:39:00,63.2,52.5,29.93,WSW,254,5.0,5.0,68,0.00,SCT,,0.00,197.0,WeatherDisplay:10.37,2013-07-28 15:39:00,
2013-07-28 10:44:00,63.1,52.4,29.93,West,275,9.2,9.2,68,0.00,SCT,,0.00,107.0,WeatherDisplay:10.37,2013-07-28 15:44:00,
2013-07-28 10:49:00,62.9,52.6,29.93,WSW,256,10.0,10.0,69,0.00,SCT,,0.00,250.0,WeatherDisplay:10.37,2013-07-28 15:49:00,
2013-07-28 10:54:00,62.9,51.8,29.93,WSW,255,12.7,12.7,67,0.00,SCT,,0.00,250.0,WeatherDisplay:10.37,2013-07-28 15:54:00,
2013-07-28 10:59:00,63.0,51.9,29.93,NNW,328,12.7,12.7,67,0.00,SCT,,0.00,272.0,WeatherDisplay:10.37,2013-07-28 15:59:00,
2013-07-28 11:04:00,63.2,52.1,29.93,NW,315,11.5,11.5,67,0.00,OVC,,0.00,264.0,WeatherDisplay:10.37,2013-07-28 16:04:00,
2013-07-28 11:09:00,63.6,52.4,29.93,WNW,298,11.5,11.5,67,0.00,OVC,,0.00,385.0,WeatherDisplay:10.37,2013-07-28 16:09:00,
2013-07-28 11:14:00,64.1,52.5,29.93,West,275,11.5,11.5,66,0.00,OVC,,0.00,355.0,WeatherDisplay:10.37,2013-07-28 16:14:00,
2013-07-28 11:19:00,64.2,52.2,29.93,NW,309,10.0,10.0,65,0.00,OVC,,0.00,297.0,WeatherDisplay:10.37,2013-07-28 16:19:00,
2013-07-28 11:24:00,64.3,52.3,29.93,SW,234,11.5,11.5,65,0.00,OVC,,0.00,403.0,WeatherDisplay:10.37,2013-07-28 16:24:00,
2013-07-28 11:29:00,64.9,51.6,29.93,West,281,17.3,17.3,62,0.00,OVC,,0.00,232.0,WeatherDisplay:10.37,2013-07-28 16:29:00,
2013-07-28 11:34:00,64.3,50.6,29.93,WNW,287,18.0,18.0,61,0.00,OVC,,0.00,229.0,WeatherDisplay:10.37,2013-07-28 16:34:00,
2013-07-28 11:39:00,63.7,50.4,29.93,WSW,250,15.0,15.0,62,0.00,OVC,,0.00,352.0,WeatherDisplay:10.37,2013-07-28 16:39:00,
2013-07-28 11:44:00,64.1,51.2,29.93,West,271,10.0,10.0,63,0.00,OVC,,0.00,1100.0,WeatherDisplay:10.37,2013-07-28 16:44:00,
2013-07-28 11:49:00,65.1,51.3,29.93,WNW,293,10.4,10.4,61,0.00,BKN,,0.00,313.0,WeatherDisplay:10.37,2013-07-28 16:49:00,
2013-07-28 11:54:00,65.5,51.2,29.93,NW,311,13.8,13.8,60,0.00,BKN,,0.00,287.0,WeatherDisplay:10.37,2013-07-28 16:54:00,
2013-07-28 11:59:00,65.1,50.9,29.93,WNW,300,11.5,11.5,60,0.00,BKN,,0.00,221.0,WeatherDisplay:10.37,2013-07-28 16:59:00,
2013-07-28 12:05:00,64.7,50.9,29.94,NW,321,11.0,11.0,61,0.00,BKN,,0.00,399.0,WeatherDisplay:10.37,2013-07-28 17:05:00,
2013-07-28 12:10:00,65.4,51.1,29.93,NW,315,13.8,13.8,60,0.00,BKN,,0.00,399.0,WeatherDisplay:10.37,2013-07-28 17:10:00,
2013-07-28 12:15:00,66.5,50.8,29.93,West,262,16.1,16.1,57,0.00,BKN,,0.00,1083.0,WeatherDisplay:10.37,2013-07-28 17:15:00,
2013-07-28 12:20:00,67.0,50.8,29.94,WNW,290,13.8,13.8,56,0.00,BKN,,0.00,812.0,WeatherDisplay:10.37,2013-07-28 17:20:00,
2013-07-28 12:25:00,66.7,50.5,29.94,WSW,257,12.7,12.7,56,0.00,BKN,,0.00,258.0,WeatherDisplay:10.37,2013-07-28 17:25:00,
2013-07-28 12:30:00,66.1,50.9,29.94,NW,312,18.4,18.4,58,0.00,BKN,,0.00,376.0,WeatherDisplay:10.37,2013-07-28 17:30:00,
2013-07-28 12:35:00,65.9,52.1,29.94,West,262,10.4,10.4,61,0.00,BKN,,0.00,383.0,WeatherDisplay:10.37,2013-07-28 17:35:00,
2013-07-28 12:40:00,66.8,51.5,29.94,WNW,293,11.5,11.5,58,0.00,BKN,,0.00,1188.0,WeatherDisplay:10.37,2013-07-28 17:40:00,
2013-07-28 12:45:00,67.0,49.8,29.94,West,265,11.5,11.5,54,0.00,BKN,,0.00,297.0,WeatherDisplay:10.37,2013-07-28 17:45:00,
2013-07-28 12:50:00,67.0,50.3,29.93,NW,315,16.1,16.1,55,0.00,BKN,,0.00,364.0,WeatherDisplay:10.37,2013-07-28 17:50:00,
2013-07-28 12:55:00,66.8,49.6,29.94,WNW,286,11.5,11.5,54,0.00,BKN,,0.00,322.0,WeatherDisplay:10.37,2013-07-28 17:55:00,
2013-07-28 13:00:00,66.9,51.6,29.94,NW,317,12.7,12.7,58,0.00,BKN,,0.00,1013.0,WeatherDisplay:10.37,2013-07-28 18:00:00,
2013-07-28 13:05:00,67.6,51.3,29.94,NW,308,15.0,15.0,56,0.00,SCT,,0.00,1046.0,WeatherDisplay:10.37,2013-07-28 18:05:00,
2013-07-28 13:10:00,68.0,51.2,29.94,NW,312,10.4,10.5,55,0.00,SCT,,0.00,1090.0,WeatherDisplay:10.37,2013-07-28 18:10:00,
2013-07-28 13:15:00,68.3,50.5,29.94,SW,236,16.1,16.1,53,0.00,SCT,,0.00,1129.0,WeatherDisplay:10.37,2013-07-28 18:15:00,
2013-07-28 13:20:00,68.0,50.7,29.94,NW,315,10.4,10.4,54,0.00,SCT,,0.00,1129.0,WeatherDisplay:10.37,2013-07-28 18:20:00,
2013-07-28 13:25:00,68.6,51.8,29.94,WNW,286,12.7,12.7,55,0.00,SCT,,0.00,1269.0,WeatherDisplay:10.37,2013-07-28 18:25:00,
2013-07-28 13:30:00,67.9,50.6,29.94,NW,306,12.7,12.7,54,0.00,SCT,,0.00,265.0,WeatherDisplay:10.37,2013-07-28 18:30:00,
2013-07-28 13:35:00,67.6,50.9,29.94,SW,234,11.5,11.5,55,0.00,BKN,,0.00,1107.0,WeatherDisplay:10.37,2013-07-28 18:35:00,
2013-07-28 13:40:00,68.2,50.9,29.94,WNW,296,11.5,11.5,54,0.00,BKN,,0.00,1083.0,WeatherDisplay:10.37,2013-07-28 18:40:00,
2013-07-28 13:45:00,68.4,51.1,29.94,WNW,302,10.4,10.4,54,0.00,BKN,,0.00,279.0,WeatherDisplay:10.37,2013-07-28 18:45:00,
2013-07-28 13:50:00,68.1,51.3,29.94,NW,314,18.4,18.4,55,0.00,BKN,,0.00,1060.0,WeatherDisplay:10.37,2013-07-28 18:50:00,
2013-07-28 13:55:00,68.4,51.1,29.95,NW,319,12.0,12.0,54,0.00,BKN,,0.00,309.0,WeatherDisplay:10.37,2013-07-28 18:55:00,
2013-07-28 14:00:00,68.3,52.0,29.95,NW,304,8.1,8.1,56,0.00,BKN,,0.00,309.0,WeatherDisplay:10.37,2013-07-28 19:00:00,
2013-07-28 14:05:00,68.8,52.5,29.95,North,355,12.7,12.7,56,0.00,BKN,,0.00,1109.0,WeatherDisplay:10.37,2013-07-28 19:05:00,
2013-07-28 14:10:00,69.7,51.3,29.95,SW,232,9.2,9.2,52,0.00,BKN,,0.00,1187.0,WeatherDisplay:10.37,2013-07-28 19:10:00,
2013-07-28 14:15:00,69.6,51.7,29.95,WNW,292,15.0,15.0,53,0.00,BKN,,0.00,292.0,WeatherDisplay:10.37,2013-07-28 19:15:00,
2013-07-28 14:20:00,69.5,51.1,29.95,SW,227,12.7,12.7,52,0.00,BKN,,0.00,1097.0,WeatherDisplay:10.37,2013-07-28 19:20:00,
2013-07-28 14:25:00,69.8,50.3,29.95,NW,315,10.4,10.4,50,0.00,BKN,,0.00,346.0,WeatherDisplay:10.37,2013-07-28 19:25:00,
2013-07-28 14:30:00,70.1,51.7,29.95,NW,322,11.5,12.0,52,0.00,BKN,,0.00,997.0,WeatherDisplay:10.37,2013-07-28 19:30:00,
2013-07-28 14:35:00,69.2,50.8,29.95,WNW,297,12.7,12.7,52,0.00,BKN,,0.00,248.0,WeatherDisplay:10.37,2013-07-28 19:35:00,
2013-07-28 14:40:00,68.3,50.5,29.95,WNW,298,9.2,10.5,53,0.00,BKN,,0.00,371.0,WeatherDisplay:10.37,2013-07-28 19:40:00,
2013-07-28 14:45:00,69.0,51.7,29.95,WNW,283,17.3,17.3,54,0.00,BKN,,0.00,953.0,WeatherDisplay:10.37,2013-07-28 19:45:00,
2013-07-28 14:50:00,68.9,51.1,29.95,NW,312,14.0,14.0,53,0.00,BKN,,0.00,246.0,WeatherDisplay:10.37,2013-07-28 19:50:00,
2013-07-28 14:55:00,68.8,51.0,29.95,NW,307,15.0,15.0,53,0.00,BKN,,0.00,868.0,WeatherDisplay:10.37,2013-07-28 19:55:00,
2013-07-28 15:00:00,69.3,51.4,29.95,WSW,258,16.1,16.1,53,0.00,BKN,,0.00,904.0,WeatherDisplay:10.37,2013-07-28 20:00:00,
2013-07-28 15:05:00,70.0,51.6,29.95,West,279,16.1,16.1,52,0.00,SCT,,0.00,909.0,WeatherDisplay:10.37,2013-07-28 20:05:00,
2013-07-28 15:10:00,69.4,50.5,29.95,NW,304,10.4,10.4,51,0.00,SCT,,0.00,213.0,WeatherDisplay:10.37,2013-07-28 20:10:00,
2013-07-28 15:15:00,69.3,50.9,29.95,WNW,284,16.1,16.1,52,0.00,SCT,,0.00,986.0,WeatherDisplay:10.37,2013-07-28 20:15:00,
2013-07-28 15:20:00,69.6,49.6,29.95,NNW,331,17.3,17.3,49,0.00,SCT,,0.00,262.0,WeatherDisplay:10.37,2013-07-28 20:20:00,
2013-07-28 15:25:00,69.0,50.1,29.95,West,278,11.5,11.5,51,0.00,SCT,,0.00,348.0,WeatherDisplay:10.37,2013-07-28 20:25:00,
2013-07-28 15:30:00,69.8,50.3,29.96,NW,304,15.0,15.0,50,0.00,SCT,,0.00,935.0,WeatherDisplay:10.37,2013-07-28 20:30:00,
2013-07-28 15:35:00,68.4,48.5,29.96,NW,313,15.0,15.0,49,0.00,BKN,,0.00,288.0,WeatherDisplay:10.37,2013-07-28 20:35:00,
2013-07-28 15:40:00,68.3,48.9,29.96,NW,312,11.5,11.5,50,0.00,BKN,,0.00,320.0,WeatherDisplay:10.37,2013-07-28 20:40:00,
2013-07-28 15:45:00,68.9,48.9,29.96,WSW,250,17.3,17.3,49,0.00,BKN,,0.00,413.0,WeatherDisplay:10.37,2013-07-28 20:45:00,
2013-07-28 15:50:00,69.2,49.8,29.96,WNW,298,14.0,14.0,50,0.00,BKN,,0.00,821.0,WeatherDisplay:10.37,2013-07-28 20:50:00,
2013-07-28 15:55:00,69.9,49.9,29.96,NW,308,13.8,13.8,49,0.00,BKN,,0.00,909.0,WeatherDisplay:10.37,2013-07-28 20:55:00,
2013-07-28 16:00:00,70.0,48.8,29.96,NW,311,15.0,15.0,47,0.00,BKN,,0.00,441.0,WeatherDisplay:10.37,2013-07-28 21:00:00,
2013-07-28 16:05:00,68.9,48.4,29.96,NW,309,13.8,13.8,48,0.00,BKN,,0.00,276.0,WeatherDisplay:10.37,2013-07-28 21:05:00,
2013-07-28 16:10:00,68.9,50.5,29.96,WNW,286,15.0,15.0,52,0.00,BKN,,0.00,735.0,WeatherDisplay:10.37,2013-07-28 21:10:00,
2013-07-28 16:15:00,69.6,49.0,29.96,NW,306,11.5,11.5,48,0.00,BKN,,0.00,701.0,WeatherDisplay:10.37,2013-07-28 21:15:00,
2013-07-28 16:20:00,69.9,48.7,29.96,WNW,290,16.1,16.1,47,0.00,BKN,,0.00,717.0,WeatherDisplay:10.37,2013-07-28 21:20:00,
2013-07-28 16:25:00,69.8,49.2,29.96,NW,304,11.5,11.5,48,0.00,BKN,,0.00,721.0,WeatherDisplay:10.37,2013-07-28 21:25:00,
2013-07-28 16:30:00,69.5,48.9,29.97,NW,316,16.1,16.1,48,0.00,BKN,,0.00,241.0,WeatherDisplay:10.37,2013-07-28 21:30:00,
2013-07-28 16:35:00,68.9,48.9,29.96,West,279,11.5,11.5,49,0.00,BKN,,0.00,250.0,WeatherDisplay:10.37,2013-07-28 21:35:00,
2013-07-28 16:40:00,68.8,49.4,29.97,NW,306,12.7,12.7,50,0.00,BKN,,0.00,315.0,WeatherDisplay:10.37,2013-07-28 21:40:00,
2013-07-28 16:45:00,69.2,49.2,29.97,NW,308,13.0,13.0,49,0.00,BKN,,0.00,309.0,WeatherDisplay:10.37,2013-07-28 21:45:00,
2013-07-28 16:50:00,69.2,49.2,29.97,WNW,296,6.9,6.9,49,0.00,BKN,,0.00,445.0,WeatherDisplay:10.37,2013-07-28 21:50:00,
2013-07-28 16:55:00,69.0,49.6,29.97,West,273,11.5,11.5,50,0.00,BKN,,0.00,265.0,WeatherDisplay:10.37,2013-07-28 21:55:00,
2013-07-28 17:00:00,69.1,50.2,29.97,WNW,300,10.4,10.4,51,0.00,BKN,,0.00,700.0,WeatherDisplay:10.37,2013-07-28 22:00:00,
2013-07-28 17:05:00,69.6,50.1,29.97,NW,320,8.1,8.1,50,0.00,BKN,,0.00,633.0,WeatherDisplay:10.37,2013-07-28 22:05:00,
2013-07-28 17:10:00,69.5,50.0,29.97,NW,309,10.4,10.4,50,0.00,BKN,,0.00,244.0,WeatherDisplay:10.37,2013-07-28 22:10:00,
2013-07-28 17:15:00,69.3,49.9,29.97,NW,319,12.7,12.7,50,0.00,BKN,,0.00,374.0,WeatherDisplay:10.37,2013-07-28 22:15:00,
2013-07-28 17:20:00,69.6,51.2,29.97,NNW,330,9.2,9.2,52,0.00,BKN,,0.00,533.0,WeatherDisplay:10.37,2013-07-28 22:20:00,
2013-07-28 17:26:00,69.9,50.9,29.97,NW,326,10.0,10.0,51,0.00,BKN,,0.00,424.0,WeatherDisplay:10.37,2013-07-28 22:26:00,
2013-07-28 17:31:00,69.7,50.8,29.97,NNW,331,11.5,11.5,51,0.00,BKN,,0.00,434.0,WeatherDisplay:10.37,2013-07-28 22:31:00,
2013-07-28 17:36:00,69.5,50.6,29.97,NNW,331,10.4,10.4,51,0.00,OVC,,0.00,441.0,WeatherDisplay:10.37,2013-07-28 22:36:00,
2013-07-28 17:41:00,69.6,50.7,29.97,NW,318,9.2,9.2,51,0.00,OVC,,0.00,399.0,WeatherDisplay:10.37,2013-07-28 22:41:00,
2013-07-28 17:46:00,69.4,49.9,29.97,NW,326,11.5,11.5,50,0.00,BKN,,0.00,387.0,WeatherDisplay:10.37,2013-07-28 22:46:00,
2013-07-28 17:51:00,69.4,50.5,29.97,WNW,296,10.4,10.4,51,0.00,BKN,,0.00,360.0,WeatherDisplay:10.37,2013-07-28 22:51:00,
2013-07-28 17:56:00,69.7,49.1,29.97,SW,223,11.5,11.5,48,0.00,BKN,,0.00,374.0,WeatherDisplay:10.37,2013-07-28 22:56:00,
2013-07-28 18:01:00,69.7,49.1,29.97,West,275,10.4,10.4,48,0.00,OVC,,0.00,127.0,WeatherDisplay:10.37,2013-07-28 23:01:00,
2013-07-28 18:06:00,68.9,48.9,29.97,WNW,301,11.0,11.0,49,0.00,OVC,,0.00,156.0,WeatherDisplay:10.37,2013-07-28 23:06:00,
2013-07-28 18:11:00,68.2,50.4,29.98,NW,316,8.1,8.1,53,0.00,OVC,,0.00,265.0,WeatherDisplay:10.37,2013-07-28 23:11:00,
2013-07-28 18:16:00,68.5,50.7,29.98,NW,306,13.8,13.8,53,0.00,OVC,,0.00,316.0,WeatherDisplay:10.37,2013-07-28 23:16:00,
2013-07-28 18:21:00,68.7,50.4,29.98,WNW,296,10.4,10.4,52,0.00,OVC,,0.00,278.0,WeatherDisplay:10.37,2013-07-28 23:21:00,
2013-07-28 18:26:00,68.6,50.3,29.98,NW,309,8.1,8.1,52,0.00,OVC,,0.00,267.0,WeatherDisplay:10.37,2013-07-28 23:26:00,
2013-07-28 18:31:00,68.1,49.8,29.98,NNW,329,11.5,11.5,52,0.00,OVC,,0.00,262.0,WeatherDisplay:10.37,2013-07-28 23:31:00,
2013-07-28 18:36:00,68.0,50.2,29.98,NW,309,8.1,8.1,53,0.00,OVC,,0.00,229.0,WeatherDisplay:10.37,2013-07-28 23:36:00,
2013-07-28 18:41:00,67.9,50.1,29.98,WNW,298,11.5,11.5,53,0.00,OVC,,0.00,202.0,WeatherDisplay:10.37,2013-07-28 23:41:00,
2013-07-28 18:46:00,68.0,50.2,29.99,NW,311,8.1,8.1,53,0.00,OVC,,0.00,181.0,WeatherDisplay:10.37,2013-07-28 23:46:00,
2013-07-28 18:51:00,67.9,50.1,29.99,WNW,301,9.2,9.2,53,0.00,OVC,,0.00,160.0,WeatherDisplay:10.37,2013-07-28 23:51:00,
2013-07-28 18:57:00,67.8,50.5,29.99,NW,316,6.0,6.0,54,0.00,OVC,,0.00,135.0,WeatherDisplay:10.37,2013-07-28 23:57:00,
2013-07-28 19:02:00,67.7,50.5,29.99,WNW,284,5.8,5.8,54,0.00,CLR,,0.00,121.0,WeatherDisplay:10.37,2013-07-29 00:02:00,
2013-07-28 19:07:00,67.5,50.8,29.99,West,273,5.8,5.8,55,0.00,CLR,,0.00,86.0,WeatherDisplay:10.37,2013-07-29 00:07:00,
2013-07-28 19:12:00,67.2,51.0,29.99,NW,323,8.1,8.1,56,0.00,CLR,,0.00,21.0,WeatherDisplay:10.37,2013-07-29 00:12:00,
2013-07-28 19:17:00,66.8,50.1,29.99,WSW,249,9.2,9.2,55,0.00,CLR,,0.00,21.0,WeatherDisplay:10.37,2013-07-29 00:17:00,
2013-07-28 19:22:00,66.6,50.4,29.99,WNW,292,8.1,8.1,56,0.00,CLR,,0.00,19.0,WeatherDisplay:10.37,2013-07-29 00:22:00,
2013-07-28 19:27:00,66.3,50.1,29.99,NW,312,4.6,4.6,56,0.00,CLR,,0.00,19.0,WeatherDisplay:10.37,2013-07-29 00:27:00,
2013-07-28 19:32:00,66.1,49.9,30.00,NW,317,6.0,6.0,56,0.00,CLR,,0.00,18.0,WeatherDisplay:10.37,2013-07-29 00:32:00,
2013-07-28 19:37:00,65.9,50.2,30.00,NW,307,5.8,5.8,57,0.00,CLR,,0.00,16.0,WeatherDisplay:10.37,2013-07-29 00:37:00,
2013-07-28 19:42:00,65.7,50.0,30.00,NW,306,5.0,5.0,57,0.00,CLR,,0.00,14.0,WeatherDisplay:10.37,2013-07-29 00:42:00,
2013-07-28 19:47:00,65.4,50.2,30.00,NW,311,3.5,3.5,58,0.00,CLR,,0.00,12.0,WeatherDisplay:10.37,2013-07-29 00:47:00,
2013-07-28 19:52:00,65.1,50.4,30.00,NW,304,3.5,3.5,59,0.00,CLR,,0.00,11.0,WeatherDisplay:10.37,2013-07-29 00:52:00,
2013-07-28 19:57:00,64.9,50.7,30.00,NW,305,3.5,3.5,60,0.00,CLR,,0.00,9.0,WeatherDisplay:10.37,2013-07-29 00:57:00,
2013-07-28 20:02:00,64.6,50.4,30.00,NW,304,2.3,2.3,60,0.00,CLR,,0.00,7.0,WeatherDisplay:10.37,2013-07-29 01:02:00,
2013-07-28 20:07:00,64.2,50.5,30.00,NW,304,2.3,2.3,61,0.00,CLR,,0.00,5.0,WeatherDisplay:10.37,2013-07-29 01:07:00,
2013-07-28 20:12:00,64.1,50.4,30.00,WNW,288,3.5,3.5,61,0.00,CLR,,0.00,0.0,WeatherDisplay:10.37,2013-07-29 01:12:00,
2013-07-28 20:18:00,63.9,50.6,30.00,WNW,286,2.3,2.3,62,0.00,CLR,,0.00,0.0,WeatherDisplay:10.37,2013-07-29 01:18:00,
2013-07-28 20:23:00,63.7,50.4,30.00,WNW,297,4.0,4.0,62,0.00,CLR,,0.00,0.0,WeatherDisplay:10.37,2013-07-29 01:23:00,
2013-07-28 20:29:00,63.6,50.3,30.00,WNW,296,3.5,3.5,62,0.00,CLR,,0.00,0.0,WeatherDisplay:10.37,2013-07-29 01:29:00,
2013-07-28 20:34:00,63.4,50.1,30.00,WNW,290,2.3,2.3,62,0.00,CLR,,0.00,0.0,WeatherDisplay:10.37,2013-07-29 01:34:00,
2013-07-28 20:39:00,63.2,50.4,30.00,WNW,290,1.1,0.0,63,0.00,CLR,,0.00,0.0,WeatherDisplay:10.37,2013-07-29 01:39:00,
2013-07-28 20:44:00,62.9,50.1,30.00,WNW,290,1.1,1.1,63,0.00,CLR,,0.00,0.0,WeatherDisplay:10.37,2013-07-29 01:44:00,
2013-07-28 20:49:00,62.7,50.3,30.00,WNW,290,0.0,0.0,64,0.00,CLR,,0.00,0.0,WeatherDisplay:10.37,2013-07-29 01:49:00,
2013-07-28 20:55:00,62.3,50.0,30.00,WNW,290,1.1,1.1,64,0.00,CLR,,0.00,0.0,WeatherDisplay:10.37,2013-07-29 01:55:00,
2013-07-28 21:00:00,62.1,50.2,30.01,WNW,290,1.1,0.0,65,0.00,CLR,,0.00,0.0,WeatherDisplay:10.37,2013-07-29 02:00:00,
2013-07-28 21:05:00,61.4,50.3,30.00,WNW,290,0.0,0.0,67,0.00,CLR,,0.00,0.0,WeatherDisplay:10.37,2013-07-29 02:05:00,
2013-07-28 21:11:00,60.4,49.8,30.00,WNW,290,1.1,1.1,68,0.00,CLR,,0.00,0.0,WeatherDisplay:10.37,2013-07-29 02:11:00,
2013-07-28 21:16:00,59.7,49.5,30.01,WNW,290,1.1,1.1,69,0.00,CLR,,0.00,0.0,WeatherDisplay:10.37,2013-07-29 02:16:00,
2013-07-28 21:21:00,58.8,49.4,30.01,WNW,290,1.1,0.0,71,0.00,CLR,,0.00,0.0,WeatherDisplay:10.37,2013-07-29 02:21:00,
2013-07-28 21:26:00,58.2,49.6,30.01,WNW,290,1.1,1.1,73,0.00,CLR,,0.00,0.0,WeatherDisplay:10.37,2013-07-29 02:26:00,
2013-07-28 21:32:00,57.6,49.0,30.01,WNW,290,0.0,0.0,73,0.00,CLR,,0.00,0.0,WeatherDisplay:10.37,2013-07-29 02:32:00,
2013-07-28 21:37:00,57.1,49.6,30.01,WNW,290,0.0,0.0,76,0.00,CLR,,0.00,0.0,WeatherDisplay:10.37,2013-07-29 02:37:00,
2013-07-28 21:43:00,56.4,49.3,30.01,WNW,290,2.3,2.3,77,0.00,CLR,,0.00,0.0,WeatherDisplay:10.37,2013-07-29 02:43:00,
2013-07-28 21:48:00,56.3,49.2,30.02,WNW,290,2.3,2.3,77,0.00,CLR,,0.00,0.0,WeatherDisplay:10.37,2013-07-29 02:48:00,
2013-07-28 21:53:00,56.7,49.2,30.02,WNW,290,3.0,3.0,76,0.00,CLR,,0.00,0.0,WeatherDisplay:10.37,2013-07-29 02:53:00,
2013-07-28 21:58:00,58.0,50.1,30.02,WNW,290,3.5,3.5,75,0.00,CLR,,0.00,0.0,WeatherDisplay:10.37,2013-07-29 02:58:00,
2013-07-28 22:03:00,59.2,50.5,30.02,WNW,290,2.3,2.3,73,0.00,CLR,,0.00,0.0,WeatherDisplay:10.37,2013-07-29 03:03:00,
2013-07-28 22:08:00,59.9,50.5,30.02,WNW,290,2.3,2.3,71,0.00,CLR,,0.00,0.0,WeatherDisplay:10.37,2013-07-29 03:08:00,
2013-07-28 22:13:00,60.3,50.5,30.03,WNW,290,2.3,2.3,70,0.00,CLR,,0.00,0.0,WeatherDisplay:10.37,2013-07-29 03:13:00,
2013-07-28 22:18:00,60.4,50.2,30.03,WNW,290,2.3,2.3,69,0.00,CLR,,0.00,0.0,WeatherDisplay:10.37,2013-07-29 03:18:00,
2013-07-28 22:24:00,60.3,50.1,30.03,WNW,290,1.1,1.1,69,0.00,CLR,,0.00,0.0,WeatherDisplay:10.37,2013-07-29 03:24:00,
2013-07-28 22:30:00,59.9,50.1,30.03,WNW,290,1.1,1.1,70,0.00,CLR,,0.00,0.0,WeatherDisplay:10.37,2013-07-29 03:30:00,
2013-07-28 22:36:00,59.5,50.5,30.03,WNW,290,1.1,1.1,72,0.00,CLR,,0.00,0.0,WeatherDisplay:10.37,2013-07-29 03:36:00,
2013-07-28 22:41:00,59.0,50.0,30.03,WNW,290,0.0,0.0,72,0.00,CLR,,0.00,0.0,WeatherDisplay:10.37,2013-07-29 03:41:00,
2013-07-28 22:46:00,58.4,49.8,30.02,WNW,290,0.0,0.0,73,0.00,CLR,,0.00,0.0,WeatherDisplay:10.37,2013-07-29 03:46:00,
2013-07-28 22:52:00,57.5,49.3,30.03,WNW,290,2.3,2.3,74,0.00,CLR,,0.00,0.0,WeatherDisplay:10.37,2013-07-29 03:52:00,
2013-07-28 22:57:00,57.0,49.5,30.03,WNW,290,0.0,0.0,76,0.00,CLR,,0.00,0.0,WeatherDisplay:10.37,2013-07-29 03:57:00,
2013-07-28 23:01:00,56.9,49.8,30.03,WNW,290,3.5,3.5,77,0.00,CLR,,0.00,0.0,WeatherDisplay:10.37,2013-07-29 04:01:00,
2013-07-28 23:02:00,56.9,49.8,30.03,WNW,290,3.5,3.5,77,0.00,CLR,,0.00,0.0,WeatherDisplay:10.37,2013-07-29 04:02:00,
2013-07-28 23:07:00,57.0,50.2,30.03,WNW,290,2.3,2.3,78,0.00,CLR,,0.00,0.0,WeatherDisplay:10.37,2013-07-29 04:07:00,
2013-07-28 23:12:00,57.3,50.5,30.03,WNW,289,3.5,3.5,78,0.00,CLR,,0.00,0.0,WeatherDisplay:10.37,2013-07-29 04:12:00,
2013-07-28 23:17:00,57.7,50.5,30.03,West,279,2.3,2.3,77,0.00,CLR,,0.00,0.0,WeatherDisplay:10.37,2013-07-29 04:17:00,
2013-07-28 23:22:00,57.8,50.6,30.03,West,279,3.5,3.5,77,0.00,CLR,,0.00,0.0,WeatherDisplay:10.37,2013-07-29 04:22:00,
2013-07-28 23:27:00,57.9,50.7,30.03,West,279,3.5,3.5,77,0.00,CLR,,0.00,0.0,WeatherDisplay:10.37,2013-07-29 04:27:00,
2013-07-28 23:32:00,57.8,50.6,30.03,West,279,2.3,2.3,77,0.00,CLR,,0.00,0.0,WeatherDisplay:10.37,2013-07-29 04:32:00,
2013-07-28 23:37:00,57.6,50.4,30.03,West,279,2.3,2.3,77,0.00,CLR,,0.00,0.0,WeatherDisplay:10.37,2013-07-29 04:37:00,
2013-07-28 23:42:00,57.6,50.4,30.03,West,279,1.1,1.1,77,0.00,CLR,,0.00,0.0,WeatherDisplay:10.37,2013-07-29 04:42:00,
2013-07-28 23:47:00,57.5,50.3,30.03,West,279,2.0,2.0,77,0.00,CLR,,0.00,0.0,WeatherDisplay:10.37,2013-07-29 04:47:00,
2013-07-28 23:52:00,57.7,50.5,30.03,West,279,2.3,2.3,77,0.00,CLR,,0.00,0.0,WeatherDisplay:10.37,2013-07-29 04:52:00,
2013-07-28 23:57:00,58.0,50.5,30.03,West,279,2.3,2.3,76,0.00,CLR,,0.00,0.0,WeatherDisplay:10.37,2013-07-29 04:57:00,